Location: ??????
(38.0131°N, 23.7723°E)
Time: 06:20:33
(UTC+00:00)

Meteor 1-11 - Pass Details

Date: 17 October 2021
Orbit: 840 x 887 km, 81.2° (Epoch: 28 November)

Event Time Altitude Azimuth Distance (km) Brightness Sun altitude
Rises 17:49:20 0° 349° (NNW) 3,404 7.6 -25.3°
Reaches altitude 10° 17:51:45 10° 347° (NNW) 2,468 6.8 -25.8°
Maximum altitude 17:57:19 75° 264° (W) 880 4.3 -26.9°
Enters shadow 18:00:17 29° 184° (S) 1,516 5.4 -27.5°
